This is the latest recevied weather packets stored in our database for station/object SQ5DN-4. If no packets are shown the sender has not sent any weather packets the latest 1 day(s).
| Time | Temp. | Humidity | Pressure | Rain* | Wind** | Luminosity | Snow |
|---|---|---|---|---|---|---|---|
| 1778039458 | 11.11° C | 88% | 1002 hPa | - | - | - | - |
| 1778038907 | 10.56° C | 86% | 1002 hPa | - | - | - | - |
| 1778038382 | 10.56° C | 85% | 1002 hPa | - | - | - | - |
| 1778037848 | 10.56° C | 85% | 1002 hPa | - | - | - | - |
| 1778037317 | 10.56° C | 85% | 1002 hPa | - | - | - | - |
| 1778036802 | 10.56° C | 84% | 1002 hPa | - | - | - | - |
| 1778036307 | 10.56° C | 84% | 1002 hPa | - | - | - | - |
| 1778035267 | 10.56° C | 84% | 1003 hPa | - | - | - | - |
| 1778034737 | 10.56° C | 84% | 1003 hPa | - | - | - | - |
| 1778034237 | 10.56° C | 84% | 1003 hPa | - | - | - | - |
| 1778033718 | 10.56° C | 83% | 1003 hPa | - | - | - | - |
| 1778033127 | 10.56° C | 83% | 1003 hPa | - | - | - | - |
| 1778032582 | 10.56° C | 83% | 1003 hPa | - | - | - | - |
| 1778032017 | 11.11° C | 82% | 1003 hPa | - | - | - | - |
| 1778031537 | 11.11° C | 83% | 1003 hPa | - | - | - | - |
| 1778030991 | 11.67° C | 82% | 1003 hPa | - | - | - | - |
| 1778030452 | 11.67° C | 82% | 1003 hPa | - | - | - | - |
| 1778029897 | 11.67° C | 84% | 1003 hPa | - | - | - | - |
| 1778029367 | 11.67° C | 84% | 1003 hPa | - | - | - | - |
| 1778028787 | 11.67° C | 85% | 1003 hPa | - | - | - | - |
| 1778028212 | 11.67° C | 88% | 1003 hPa | - | - | - | - |
| 1778027707 | 12.22° C | 87% | 1003 hPa | - | - | - | - |
| 1778027177 | 12.78° C | 85% | 1003 hPa | - | - | - | - |
| 1778026677 | 12.78° C | 86% | 1003 hPa | - | - | - | - |
| 1778026182 | 12.78° C | 85% | 1003 hPa | - | - | - | - |
* Rain since midnight (hover to see other rain measurements)
** Current wind speed in m/s (hover to see current wind gust speed)